Regional Weather Roundup
Issued by NWS

Home | Current Version | Previous Version | Text Only | Print | Product List | Glossary Off
Versions: 1 2 3 4 5 6 7 8 9 10 11 12 13 14 15 16 17 18 19 20 21 22 23 24 25 26 27

000
ASUS45 KCYS 050010
RWRWY

WYOMING REGIONAL WEATHER ROUNDUP
NATIONAL WEATHER SERVICE CHEYENNE WY
500 PM MST SUN DEC 04 2016

NOTE:  "FAIR" INDICATES FEW OR NO CLOUDS BELOW 12,000 FEET
WITH NO SIGNIFICANT WEATHER AND/OR OBSTRUCTIONS TO VISIBILITY.

WYZ001-050100-
YELLOWSTONE NATIONAL PARK

CITY           SKY/WX    TMP DP  RH WIND       PRES   REMARKS
LK YELLOWSTONE   N/A     23  21  92 VRB5G20   29.64F WCI  17
6HR MIN TEMP:  21; 6HR MAX TEMP:  23; 6HR PCP:  0.09;

W YELLOWSTONE  NOT AVBL

$$
WYZ002>013-054>058-071-098>099-050100-
NORTHERN WYOMING

CITY           SKY/WX    TMP DP  RH WIND       PRES   REMARKS
JACKSON        CLOUDY    28  28 100 S21G26    29.70F VSB 3/4 WCI  15
CODY           FAIR      35  26  69 NW8       29.59F WCI  29
GREYBULL       FAIR      33  18  53 CALM      29.59F
6HR MIN TEMP:  33; 6HR MAX TEMP:  40;

WORLAND        FAIR      32  21  64 CALM      29.59F
6HR MIN TEMP:  32; 6HR MAX TEMP:  42;

SHERIDAN       FAIR      37  18  46 S6        29.56F WCI  32
6HR MIN TEMP:  37; 6HR MAX TEMP:  41;

BUFFALO        FAIR      34  16  47 NW8       29.57F WCI  27
6HR MIN TEMP:  34; 6HR MAX TEMP:  44;

GILLETTE       CLOUDY    33  20  58 CALM      29.59F
6HR MIN TEMP:  33; 6HR MAX TEMP:  42;

HULETT         FAIR      34  19  55 SW6       29.62F WCI  29
NEWCASTLE      FAIR      36  19  51 E9        29.65F WCI  29

$$
WYZ014>020-022>026-101>103-050100-
CENTRAL WYOMING

CITY           SKY/WX    TMP DP  RH WIND       PRES   REMARKS
BIG PINEY      CLOUDY    29  22  75 W10       29.79F WCI  20
6HR MIN TEMP:  24; 6HR MAX TEMP:  37;

PINEDALE       CLOUDY    30  23  74 MISG      29.79F
DUBOIS         LGT SNOW  30  21  69 NW15G22   29.61F WCI  19
LANDER         FAIR      38  22  52 VRB6      29.64F WCI  33
6HR MIN TEMP:  32; 6HR MAX TEMP:  45;

RIVERTON       FAIR      37  22  54 SW8       29.64S WCI  31
6HR MIN TEMP:  33; 6HR MAX TEMP:  44;

CASPER         FAIR      36  18  48 SW22      29.67F WCI  25
6HR MIN TEMP:  36; 6HR MAX TEMP:  41; 6HR PCP: TRACE;

DOUGLAS        FAIR      40  19  43 W17G24    29.65F WCI  31
6HR MIN TEMP:  39; 6HR MAX TEMP:  45;


$$
WYZ021-027>030-104>119-050100-
SOUTHERN WYOMING

CITY           SKY/WX    TMP DP  RH WIND       PRES   REMARKS
EVANSTON       CLOUDY    34  18  52 SW20G25   29.90F WCI  23
6HR MIN TEMP:  28; 6HR MAX TEMP:  36;

KEMMERER         N/A     32  19  59 SW23G36   29.86F WCI  19
FORT BRIDGER   CLOUDY    35  20  52 W17       29.90S WCI  25
ROCK SPRINGS   CLOUDY    35  18  49 W12       29.85F WCI  27
6HR MIN TEMP:  31; 6HR MAX TEMP:  37;

DIXON          CLOUDY    34  15  45 SW12      29.93F WCI  26
RAWLINS        FAIR      31  14  49 SW23G36   29.80F WCI  18
6HR MIN TEMP:  29; 6HR MAX TEMP:  35;

SARATOGA       CLOUDY    32  19  59 S9G18     29.88F WCI  24
LARAMIE        FAIR      34  15  46 SW16G31   29.79F WCI  24
6HR MIN TEMP:  33; 6HR MAX TEMP:  39;

CHEYENNE       FAIR      41  17  38 W33G44    29.70F
6HR MIN TEMP:  36; 6HR MAX TEMP:  47;

TORRINGTON     FAIR      45  18  34 W12       29.71F
6HR MIN TEMP:  43; 6HR MAX TEMP:  47;

PINE BLUFFS    FAIR      43  18  36 W15G21    29.76F

$$




USA.gov is the U.S. government's official web portal to all federal, state and local government web resources and services.